STARLINK-35691

Last updated on Wed Dec 10 2025 00:02:05 GMT+0000 (Coordinated Universal Time)

1 66404U 25257AA 25343.66668981 .00114566 00000+0 28382-2 0 9995 2 66404 53.1585 278.5620 0001072 99.2920 225.2036 15.39545706 6001
UTC large
Height (km)
Speed (km/s)
/
Latitude / Longitude
Inclination (degrees)
Orbital Period (minutes)
Azimuth
Elevation
Range (km)
Doppler Factor

Next 0 passes for location: London (51.5072 / 0.1276)

Sorry there are no passes over London.